| time (UTC) | temp C | wind direction | speed KPH | gust KPH | rain 1hr cm | rain 24hr cm | rain mn cm | humidity % | barometer mb |
| 20260507173517 | 15 | 0.0 | 3.2 | 0.00 | 0.08 | 0.08 | 63 | 1013.7 | |
| 20260507172518 | 15 | 0.0 | 3.2 | 0.00 | 0.08 | 0.08 | 63 | 1013.7 | |
| 20260507171537 | 15 | 0.0 | 3.2 | 0.00 | 0.08 | 0.08 | 62 | 1013.6 | |
| 20260507170516 | 16 | 0.0 | 3.2 | 0.00 | 0.08 | 0.08 | 61 | 1013.7 | |
| 20260507165518 | 16 | 0.0 | 6.4 | 0.00 | 0.08 | 0.08 | 60 | 1013.7 | |
| 20260507164537 | 16 | 0.0 | 4.8 | 0.00 | 0.08 | 0.08 | 62 | 1013.6 | |
| 20260507163517 | 16 | 0.0 | 8.0 | 0.00 | 0.08 | 0.08 | 61 | 1013.5 | |
| 20260507162517 | 16 | 0.0 | 1.6 | 0.00 | 0.08 | 0.08 | 61 | 1013.7 | |
| 20260507161517 | 16 | 0.0 | 4.8 | 0.00 | 0.08 | 0.08 | 60 | 1013.7 | |
| 20260507160517 | 16 | 0.0 | 0.0 | 0.00 | 0.08 | 0.08 | 61 | 1013.5 | |
| 20260507155537 | 16 | 0.0 | 1.6 | 0.00 | 0.08 | 0.08 | 60 | 1013.6 | |
| 20260507154537 | 16 | 0.0 | 3.2 | 0.00 | 0.08 | 0.08 | 59 | 1013.7 | |
| 20260507153518 | 17 | 0.0 | 1.6 | 0.00 | 0.08 | 0.08 | 58 | 1013.7 | |
| 20260507152517 | 16 | 338 | 1.6 | 4.8 | 0.00 | 0.08 | 0.08 | 59 | 1013.6 |
| 20260507151517 | 16 | 338 | 1.6 | 4.8 | 0.00 | 0.08 | 0.08 | 60 | 1013.6 |
| 20260507150517 | 16 | 0.0 | 1.6 | 0.00 | 0.08 | 0.08 | 61 | 1013.6 | |
| 20260507145517 | 16 | 338 | 1.6 | 6.4 | 0.00 | 0.08 | 0.08 | 62 | 1013.6 |
| 20260507144517 | 16 | 338 | 1.6 | 4.8 | 0.00 | 0.08 | 0.08 | 63 | 1013.7 |
| 20260507143517 | 16 | 0.0 | 6.4 | 0.00 | 0.08 | 0.08 | 63 | 1013.7 | |
| 20260507142517 | 16 | 0.0 | 4.8 | 0.00 | 0.10 | 0.08 | 64 | 1013.7 | |
| 20260507141517 | 16 | 0.0 | 4.8 | 0.00 | 0.13 | 0.08 | 63 | 1013.6 | |
| 20260507140517 | 16 | 338 | 1.6 | 6.4 | 0.00 | 0.23 | 0.08 | 63 | 1013.7 |
| 20260507135517 | 16 | 338 | 1.6 | 6.4 | 0.00 | 0.36 | 0.08 | 62 | 1013.8 |
| 20260507134517 | 16 | 338 | 1.6 | 8.0 | 0.00 | 0.43 | 0.08 | 62 | 1013.9 |
| 20260507133517 | 16 | 0.0 | 4.8 | 0.00 | 0.56 | 0.08 | 60 | 1013.8 | |
| 20260507132517 | 17 | 338 | 1.6 | 6.4 | 0.00 | 0.69 | 0.08 | 57 | 1014.0 |
| 20260507131517 | 16 | 315 | 1.6 | 11.3 | 0.00 | 0.76 | 0.08 | 58 | 1013.9 |
| 20260507130517 | 16 | 315 | 3.2 | 12.9 | 0.00 | 0.76 | 0.08 | 58 | 1013.9 |
| 20260507125517 | 17 | 315 | 1.6 | 4.8 | 0.00 | 0.76 | 0.08 | 62 | 1014.1 |
| 20260507124518 | 16 | 315 | 1.6 | 9.7 | 0.00 | 0.76 | 0.08 | 63 | 1014.1 |
| 20260507123537 | 16 | 0.0 | 4.8 | 0.00 | 0.76 | 0.08 | 64 | 1013.9 | |
| 20260507122537 | 16 | 0.0 | 4.8 | 0.00 | 0.76 | 0.08 | 69 | 1013.9 | |
| 20260507121557 | 15 | 0.0 | 3.2 | 0.00 | 0.76 | 0.08 | 71 | 1013.9 | |
| 20260507120517 | 15 | 293 | 1.6 | 4.8 | 0.00 | 0.76 | 0.08 | 76 | 1014.0 |
| 20260507115517 | 14 | 293 | 1.6 | 8.0 | 0.00 | 0.76 | 0.08 | 75 | 1013.9 |
| 20260507114537 | 14 | 293 | 1.6 | 9.7 | 0.00 | 0.76 | 0.08 | 76 | 1014.0 |
| 20260507113517 | 15 | 293 | 1.6 | 6.4 | 0.00 | 0.76 | 0.08 | 75 | 1014.1 |
| 20260507112517 | 15 | 0.0 | 3.2 | 0.00 | 0.76 | 0.08 | 72 | 1014.2 | |
| 20260507111517 | 15 | 0.0 | 4.8 | 0.00 | 0.76 | 0.08 | 73 | 1014.2 | |
| 20260507110517 | 14 | 293 | 1.6 | 6.4 | 0.00 | 0.76 | 0.08 | 77 | 1014.4 |
| 20260507105557 | 13 | 0.0 | 6.4 | 0.00 | 0.76 | 0.08 | 77 | 1014.3 | |
| 20260507104517 | 13 | 0.0 | 3.2 | 0.00 | 0.76 | 0.08 | 78 | 1014.3 | |
| 20260507103517 | 13 | 0.0 | 0.0 | 0.00 | 0.76 | 0.08 | 80 | 1014.4 | |
| 20260507102557 | 13 | 293 | 1.6 | 8.0 | 0.00 | 0.76 | 0.08 | 78 | 1014.5 |
| 20260507101517 | 13 | 0.0 | 4.8 | 0.00 | 0.76 | 0.08 | 80 | 1014.5 | |
| 20260507100517 | 13 | 0.0 | 1.6 | 0.00 | 0.76 | 0.08 | 79 | 1014.5 | |
| 20260507095517 | 13 | 0.0 | 6.4 | 0.00 | 0.76 | 0.08 | 79 | 1014.4 | |
| 20260507094517 | 12 | 0.0 | 6.4 | 0.00 | 0.76 | 0.08 | 82 | 1014.4 | |
| 20260507093517 | 12 | 293 | 1.6 | 6.4 | 0.00 | 0.76 | 0.08 | 81 | 1014.5 |
| 20260507092517 | 12 | 0.0 | 3.2 | 0.00 | 0.76 | 0.08 | 83 | 1014.4 | |
| 20260507091517 | 12 | 0.0 | 3.2 | 0.00 | 0.76 | 0.08 | 89 | 1014.2 | |
| 20260507090517 | 11 | 0.0 | 3.2 | 0.00 | 0.76 | 0.08 | 88 | 1014.2 | |
| 20260507085517 | 11 | 0.0 | 3.2 | 0.00 | 0.76 | 0.08 | 88 | 1014.0 | |
| 20260507084517 | 11 | 0.0 | 1.6 | 0.00 | 0.76 | 0.08 | 89 | 1014.0 | |
| 20260507083517 | 11 | 0.0 | 1.6 | 0.00 | 0.76 | 0.08 | 89 | 1014.1 | |
| 20260507082517 | 11 | 0.0 | 0.0 | 0.00 | 0.76 | 0.08 | 90 | 1014.1 | |
| 20260507081538 | 11 | 0.0 | 3.2 | 0.00 | 0.76 | 0.08 | 91 | 1014.0 | |
| 20260507080517 | 10 | 0.0 | 3.2 | 0.00 | 0.76 | 0.08 | 92 | 1013.9 | |
| 20260507075537 | 10 | 0.0 | 0.0 | 0.00 | 0.76 | 0.08 | 93 | 1013.9 | |
| 20260507074517 | 10 | 0.0 | 0.0 | 0.00 | 0.76 | 0.08 | 94 | 1013.8 | |
| 20260507073537 | 10 | 0.0 | 3.2 | 0.00 | 0.76 | 0.08 | 94 | 1013.7 | |
| 20260507072517 | 10 | 0.0 | 0.0 | 0.00 | 0.76 | 0.08 | 94 | 1013.7 | |
| 20260507071517 | 9 | 0.0 | 0.0 | 0.00 | 0.76 | 0.08 | 94 | 1013.6 | |
| 20260507070517 | 9 | 0.0 | 0.0 | 0.00 | 0.76 | 0.08 | 94 | 1013.5 | |
| 20260507065517 | 9 | 0.0 | 0.0 | 0.00 | 0.76 | 0.08 | 94 | 1013.4 | |
| 20260507064517 | 9 | 0.0 | 0.0 | 0.00 | 0.76 | 0.08 | 94 | 1013.4 | |
| 20260507063517 | 9 | 0.0 | 0.0 | 0.00 | 0.76 | 0.08 | 94 | 1013.4 | |
| 20260507062517 | 8 | 0.0 | 0.0 | 0.00 | 0.76 | 0.08 | 94 | 1013.4 | |
| 20260507061517 | 8 | 0.0 | 0.0 | 0.00 | 0.76 | 0.08 | 94 | 1013.3 | |
| 20260507060517 | 8 | 0.0 | 0.0 | 0.03 | 0.76 | 0.08 | 94 | 1013.3 | |
| 20260507055517 | 8 | 0.0 | 1.6 | 0.03 | 0.76 | 0.08 | 94 | 1013.1 | |
| 20260507054557 | 8 | 0.0 | 1.6 | 0.05 | 0.76 | 0.08 | 94 | 1013.0 | |
| 20260507053517 | 8 | 0.0 | 3.2 | 0.05 | 0.76 | 0.08 | 94 | 1012.8 | |
| 20260507052516 | 8 | 0.0 | 1.6 | 0.08 | 0.76 | 0.08 | 94 | 1012.7 | |
| 20260507051517 | 8 | 0.0 | 0.0 | 0.08 | 0.76 | 0.08 | 94 | 1012.4 | |
| 20260507050517 | 8 | 0.0 | 0.0 | 0.05 | 0.74 | 0.05 | 94 | 1012.3 | |
| 20260507045537 | 8 | 0.0 | 0.0 | 0.05 | 0.74 | 0.05 | 94 | 1012.2 | |
| 20260507044537 | 8 | 0.0 | 0.0 | 0.05 | 0.71 | 0.05 | 94 | 1012.2 | |
| 20260507043517 | 8 | 0.0 | 0.0 | 0.03 | 0.71 | 0.03 | 94 | 1012.1 | |
| 20260507042537 | 8 | 0.0 | 0.0 | 0.00 | 0.69 | 0.00 | 94 | 1012.0 | |
| 20260507041517 | 8 | 0.0 | 0.0 | 0.00 | 0.69 | 0.00 | 94 | 1011.9 | |
| 20260507040557 | 8 | 0.0 | 0.0 | 0.00 | 0.69 | 0.00 | 94 | 1011.8 | |
| 20260507035517 | 7 | 0.0 | 1.6 | 0.00 | 0.69 | 0.00 | 94 | 1011.8 | |
| 20260507034516 | 7 | 0.0 | 0.0 | 0.00 | 0.69 | 0.00 | 94 | 1011.8 | |
| 20260507033536 | 7 | 0.0 | 0.0 | 0.00 | 0.69 | 0.00 | 93 | 1011.6 | |
| 20260507032516 | 7 | 0.0 | 0.0 | 0.00 | 0.69 | 0.00 | 94 | 1011.6 | |
| 20260507031536 | 7 | 0.0 | 0.0 | 0.00 | 0.69 | 0.00 | 93 | 1011.6 | |
| 20260507030516 | 7 | 0.0 | 0.0 | 0.00 | 0.69 | 0.00 | 93 | 1011.4 | |
| 20260507025516 | 6 | 0.0 | 0.0 | 0.00 | 0.69 | 0.00 | 93 | 1011.4 | |
| 20260507024517 | 6 | 0.0 | 0.0 | 0.00 | 0.69 | 0.00 | 93 | 1011.3 | |
| 20260507023517 | 6 | 0.0 | 0.0 | 0.00 | 0.69 | 0.00 | 92 | 1011.3 | |
| 20260507022516 | 6 | 0.0 | 0.0 | 0.00 | 0.69 | 0.00 | 92 | 1011.2 | |
| 20260507021517 | 6 | 0.0 | 0.0 | 0.00 | 0.69 | 0.00 | 92 | 1011.2 | |
| 20260507020557 | 6 | 0.0 | 0.0 | 0.00 | 0.69 | 0.00 | 92 | 1011.2 | |
| 20260507015516 | 6 | 0.0 | 0.0 | 0.00 | 0.69 | 0.00 | 92 | 1011.2 | |
| 20260507014516 | 6 | 0.0 | 0.0 | 0.00 | 0.69 | 0.00 | 92 | 1011.1 | |
| 20260507013516 | 6 | 0.0 | 0.0 | 0.00 | 0.69 | 0.00 | 92 | 1011.4 | |
| 20260507012517 | 6 | 0.0 | 0.0 | 0.00 | 0.69 | 0.00 | 92 | 1011.5 | |
| 20260507011517 | 6 | 0.0 | 0.0 | 0.00 | 0.69 | 0.00 | 92 | 1011.5 | |
| 20260507010537 | 7 | 0.0 | 0.0 | 0.00 | 0.69 | 0.00 | 92 | 1011.3 | |
| 20260507005516 | 7 | 0.0 | 0.0 | 0.00 | 0.69 | 0.00 | 92 | 1011.4 | |
| 20260507004516 | 7 | 0.0 | 0.0 | 0.00 | 0.69 | 0.00 | 92 | 1011.3 | |
| 20260507003516 | 7 | 0.0 | 0.0 | 0.00 | 0.69 | 0.00 | 91 | 1011.2 | |
| 20260507002516 | 7 | 0.0 | 0.0 | 0.00 | 0.69 | 0.00 | 91 | 1011.2 | |
| 20260507001516 | 7 | 0.0 | 0.0 | 0.00 | 0.69 | 0.00 | 92 | 1011.2 | |
| 20260507000516 | 7 | 0.0 | 0.0 | 0.00 | 0.69 | 0.00 | 92 | 1011.0 | |
| 20260506235517 | 7 | 0.0 | 0.0 | 0.00 | 0.69 | 0.00 | 92 | 1011.1 | |
| 20260506234516 | 7 | 0.0 | 0.0 | 0.00 | 0.69 | 0.00 | 91 | 1011.1 | |
| 20260506233516 | 7 | 0.0 | 0.0 | 0.00 | 0.69 | 0.00 | 91 | 1010.9 | |
| 20260506232557 | 7 | 0.0 | 0.0 | 0.00 | 0.69 | 0.00 | 91 | 1010.9 | |
| 20260506231516 | 7 | 0.0 | 0.0 | 0.00 | 0.69 | 0.00 | 91 | 1010.8 | |
| 20260506230516 | 7 | 0.0 | 0.0 | 0.00 | 0.69 | 0.00 | 91 | 1010.8 | |
| 20260506225516 | 7 | 0.0 | 0.0 | 0.00 | 0.69 | 0.00 | 91 | 1010.8 | |
| 20260506224516 | 7 | 0.0 | 0.0 | 0.00 | 0.69 | 0.00 | 91 | 1010.9 | |
| 20260506223516 | 7 | 0.0 | 0.0 | 0.00 | 0.69 | 0.00 | 91 | 1010.7 | |
| 20260506222516 | 7 | 0.0 | 0.0 | 0.00 | 0.69 | 0.00 | 91 | 1010.8 | |
| 20260506221516 | 7 | 0.0 | 0.0 | 0.00 | 0.69 | 0.00 | 91 | 1010.7 | |
| 20260506220516 | 8 | 0.0 | 0.0 | 0.00 | 0.69 | 0.00 | 91 | 1010.7 | |
| 20260506215517 | 8 | 0.0 | 0.0 | 0.00 | 0.69 | 0.69 | 91 | 1010.7 | |
| 20260506214517 | 8 | 0.0 | 0.0 | 0.00 | 0.69 | 0.69 | 91 | 1010.6 | |
| 20260506213537 | 8 | 0.0 | 0.0 | 0.00 | 0.69 | 0.69 | 91 | 1010.4 | |
| 20260506212517 | 8 | 0.0 | 0.0 | 0.00 | 0.69 | 0.69 | 90 | 1010.5 | |
| 20260506211517 | 8 | 0.0 | 3.2 | 0.00 | 0.69 | 0.69 | 90 | 1010.4 | |
| 20260506210517 | 8 | 0.0 | 0.0 | 0.00 | 0.69 | 0.69 | 90 | 1010.4 | |
| 20260506205517 | 8 | 0.0 | 0.0 | 0.00 | 0.69 | 0.69 | 89 | 1010.4 | |
| 20260506204517 | 8 | 0.0 | 0.0 | 0.00 | 0.69 | 0.69 | 89 | 1010.4 | |
| 20260506203517 | 8 | 0.0 | 0.0 | 0.00 | 0.69 | 0.69 | 89 | 1010.4 | |
| 20260506202517 | 8 | 0.0 | 0.0 | 0.00 | 0.69 | 0.69 | 89 | 1010.3 | |
| 20260506201517 | 8 | 0.0 | 0.0 | 0.00 | 0.69 | 0.69 | 89 | 1010.2 | |
| 20260506200517 | 8 | 0.0 | 0.0 | 0.00 | 0.69 | 0.69 | 89 | 1010.1 | |
| 20260506195517 | 8 | 0.0 | 0.0 | 0.00 | 0.69 | 0.69 | 89 | 1009.9 | |
| 20260506194517 | 8 | 0.0 | 0.0 | 0.00 | 0.69 | 0.69 | 88 | 1009.9 | |
| 20260506193517 | 8 | 0.0 | 0.0 | 0.00 | 0.69 | 0.69 | 88 | 1009.8 | |
| 20260506192517 | 9 | 0.0 | 0.0 | 0.00 | 0.69 | 0.69 | 88 | 1009.6 | |
| 20260506191517 | 9 | 0.0 | 0.0 | 0.00 | 0.69 | 0.69 | 88 | 1009.7 | |
| 20260506190517 | 9 | 0.0 | 0.0 | 0.00 | 0.69 | 0.69 | 87 | 1009.7 | |
| 20260506185517 | 9 | 0.0 | 0.0 | 0.00 | 0.69 | 0.69 | 87 | 1009.5 | |
| 20260506184537 | 10 | 0.0 | 0.0 | 0.00 | 0.71 | 0.69 | 87 | 1009.3 | |
| 20260506183537 | 10 | 0.0 | 1.6 | 0.00 | 0.71 | 0.69 | 87 | 1009.0 | |
| 20260506182517 | 10 | 0.0 | 0.0 | 0.00 | 0.71 | 0.69 | 87 | 1008.9 | |
| 20260506181517 | 10 | 0.0 | 0.0 | 0.00 | 0.71 | 0.69 | 87 | 1008.9 | |
| 20260506180517 | 10 | 0.0 | 3.2 | 0.00 | 0.71 | 0.69 | 87 | 1008.9 | |
| 20260506175517 | 10 | 0.0 | 1.6 | 0.00 | 0.71 | 0.69 | 88 | 1008.9 | |
| 20260506174700 | 11 | 0.0 | 3.2 | 0.00 | 0.71 | 0.69 | 88 | 1008.9 |